Location: Trout Lake
(45.9980°N, 121.5270°W)
Time: 18:43:15
(UTC-08:00)

RESURS DK-1 - Pass Details

Date: 06 December 2023
Orbit: 543 x 551 km, 69.9° (Epoch: 22 February)

Event Time Altitude Azimuth Distance (km) Brightness Sun altitude
Rises 18:21:47 0° 334° (NNW) 2,736 6.1 -20.1°
Reaches altitude 10° 18:24:00 10° 337° (NNW) 1,839 5.1 -20.5°
Maximum altitude 18:28:05 68° 61° (ENE) 600 2.2 -21.2°
Enters shadow 18:28:06 68° 62° (ENE) 600 2.2 -21.2°
